Location: Buch
(49.7331°N, 12.1098°E)
Time: 01:18:09
(UTC+00:00)

COSMOS 2455 - Pass Details

Date: 12 May 2021
Orbit: 902 x 908 km, 67.1° (Epoch: 23 June)

Event Time Altitude Azimuth Distance (km) Brightness Sun altitude
Rises 22:53:40 0° 324° (NW) 3,544 6.9 -21.8°
Reaches altitude 10° 22:56:25 10° 333° (NNW) 2,600 6.2 -21.8°
Maximum altitude 23:01:56 35° 39° (NE) 1,423 4.3 -21.9°
Drops below altitude 10° 23:07:24 10° 104° (ESE) 2,592 5.1 -21.9°
Enters shadow 23:09:15 - 111° (ESE) 3,215 5.5 -21.9°
